Location: Baller�as
(41.9020°N, 0.1554°W)
Time: 10:21:22
(UTC+00:00)

IRIDIUM 104 - Pass Details

Date: 10 August 2020
Orbit: 776 x 779 km, 86.4° (Epoch: 22 September)

Event Time Altitude Azimuth Distance (km) Brightness Sun altitude
Rises 19:56:09 0° 173° (S) 3,247 7.2 -9.0°
Reaches altitude 10° 19:58:30 10° 170° (S) 2,324 6.4 -9.4°
Maximum altitude 20:03:39 65° 89° (E) 854 4.3 -10.2°
Drops below altitude 10° 20:08:50 10° 9° (N) 2,340 7.1 -11.0°
Sets 20:11:12 0° 6° (N) 3,272 7.9 -11.4°
